Home > Weather > Zárate > Past weeks

Flag for Argentina Weather for the Past 2 Weeks in Zárate, Buenos Aires, Argentina

Now
82 °F

Clear.


Feels Like: 87 °F
Forecast: 75 / 92 °F
Wind: 10 mph from East

Location: Buenos Aires Airport

Current Time: Feb 7, 2016 at 1:17:50 AM

Latest Report: Feb 6, 2016 at 11:00 PM


Visibility: 10 mi

Pressure: 29.95 "Hg

Humidity: 70%

Dew point: 72 °F

Location of ZárateLocation

Historic Weather in Zárate — Graph

°F

Zárate Temperature Yesterday

Maximum temperature yesterday: 84 °F (at 1:00 PM)
Minimum temperature yesterday: 77 °F (at 1:00 AM)
Average temperature yesterday: 80 °F

High & Low Weather Summary for the Past Weeks

 TemperatureHumidityPressure
High93 °F (Jan 24, 3:00 PM)89% (Jan 29, 3:00 PM)30.18 "Hg (Jan 29, 3:00 PM)
Low63 °F (Feb 1, 6:00 AM)24% (Jan 25, 6:00 PM)29.47 "Hg (Jan 24, 6:00 PM)
Average77 °F62%29.92 "Hg
* Reported Jan 22 11:00 PM — Feb 6 11:00 PM, Zárate, Weather by CustomWeather, © 2016

Note: Actual official high and low records may vary slightly from our data, if they occured in-between our weather recording intervals... More about our weather records

Advertising

Zárate Weather History for the Previous 24 Hours

 ConditionsComfort  
Time TempWeatherWind HumidityBarometerVisibility
11:00 PM
Sat, Feb 6
82 °FClear.10 mph70%29.95 "Hg10 mi
10:00 PM82 °FClear.17 mph70%29.95 "Hg10 mi
9:00 PM81 °FClear.21 mph74%29.95 "Hg10 mi
8:00 PM81 °FClear.21 mph74%29.95 "Hg10 mi
7:00 PM81 °FClear.26 mph74%29.95 "Hg10 mi
6:00 PM82 °FSunny.21 mph74%29.95 "Hg10 mi
5:00 PM84 °FPassing clouds.21 mph70%29.95 "HgN/A
4:00 PM82 °FPassing clouds.16 mph74%29.95 "HgN/A
3:00 PM84 °FPassing clouds.17 mph66%29.98 "HgN/A
2:00 PM82 °FPassing clouds.16 mph70%30.01 "HgN/A
1:00 PM84 °FPassing clouds.9 mph66%30.01 "HgN/A
12:00 PM82 °FSunny.5 mph66%30.04 "Hg10 mi
11:00 AM81 °FSunny.6 mph66%30.04 "Hg10 mi
10:00 AM79 °FSunny.8 mph65%30.04 "Hg10 mi
9:00 AM79 °FSunny.9 mph65%30.04 "Hg10 mi
8:00 AM77 °FSunny.9 mph69%30.07 "Hg10 mi
7:00 AM77 °FScattered clouds.9 mph69%30.04 "HgN/A
6:00 AM77 °FPartly sunny.12 mph69%30.04 "HgN/A
5:00 AM79 °FClear.14 mph65%30.01 "Hg10 mi
4:00 AM79 °FClear.12 mph70%30.04 "Hg10 mi
3:00 AM77 °FClear.17 mph69%30.01 "Hg10 mi
2:00 AM77 °FClear.14 mph69%30.01 "Hg10 mi
1:00 AM77 °FClear.17 mph69%30.01 "Hg10 mi
Weather by CustomWeather, © 2016

See weather overviewHow to use our weather pages